Home > Weather > Bentonville > Past weeks

Flag for USA Weather for the Past 2 Weeks in Bentonville, Arkansas, USA

Now
66 °F

More clouds than sun.


Feels Like: 66 °F
Forecast: 56 / 72 °F
Wind: 6 mph from Northwest

Location: Bentonville Weather Observing Station

Current Time: Apr 30, 2016 at 5:32:41 PM

Latest Report: Apr 30, 2016 at 4:55 PM


Visibility: 10 mi

Pressure: 29.79 "Hg

Humidity: 73%

Dew Point: 57 °F

Location of BentonvilleLocation

Historic Weather in Bentonville — Graph

°F

Bentonville Temperature Yesterday

Maximum temperature yesterday: 66 °F (at 1:15 PM)
Minimum temperature yesterday: 54 °F (at 8:35 AM)
Average temperature yesterday: 62 °F

High & Low Weather Summary for the Past Weeks

 TemperatureHumidityPressure
High79 °F (Apr 23, 2:15 PM)88% (Apr 18, 9:15 AM)30.23 "Hg (Apr 18, 9:15 AM)
Low46 °F (Apr 23, 6:15 AM)32% (Apr 23, 3:35 PM)29.58 "Hg (Apr 27, 5:35 AM)
Average65 °F65%29.97 "Hg
* Reported Apr 15 3:15 PM — Apr 30 3:55 PM, Bentonville, Weather by CustomWeather, © 2016

Note: Actual official high and low records may vary slightly from our data, if they occured in-between our weather recording intervals... More about our weather records

Advertising

Bentonville Weather History for the Previous 24 Hours

Scroll right to see more
 ConditionsComfort  
Time TempWeatherWind HumidityBarometerVisibility
3:55 PM
Sat, Apr 30
66 °FMostly cloudy.8 mph73%29.78 "Hg10 mi
3:35 PM66 °FMostly cloudy.9 mph73%29.78 "Hg10 mi
3:15 PM66 °FOvercast.9 mph73%29.79 "Hg10 mi
2:55 PM64 °FOvercast.8 mph78%29.79 "Hg10 mi
2:35 PM66 °FOvercast.12 mph73%29.78 "Hg10 mi
2:15 PM66 °FOvercast.9 mph78%29.78 "Hg10 mi
1:55 PM66 °FOvercast.12 mph78%29.78 "Hg10 mi
1:35 PM66 °FOvercast.7 mph83%29.77 "Hg10 mi
1:15 PM66 °FOvercast.12 mph78%29.77 "Hg10 mi
12:55 PM66 °FMostly cloudy.10 mph83%29.77 "Hg10 mi
12:35 PM66 °FMostly cloudy.13 mph83%29.76 "Hg10 mi
12:15 PM66 °FMostly cloudy.9 mph83%29.77 "Hg10 mi
11:55 AM68 °FBroken clouds.9 mph83%29.77 "Hg10 mi
11:35 AM66 °FCloudy.12 mph88%29.78 "Hg10 mi
11:15 AM64 °FMostly cloudy.7 mph88%29.77 "Hg3 mi
10:55 AM66 °FMostly cloudy.9 mph83%29.77 "Hg3 mi
10:35 AM66 °FMore clouds than sun.13 mph78%29.76 "Hg9 mi
10:15 AM66 °FCloudy.7 mph83%29.76 "Hg10 mi
9:55 AM66 °FOvercast.10 mph83%29.75 "Hg10 mi
9:35 AM64 °FMostly cloudy.7 mph83%29.75 "Hg10 mi
9:15 AM64 °FLow clouds.7 mph83%29.75 "Hg10 mi
8:55 AM63 °FMore clouds than sun.12 mph88%29.76 "Hg3 mi
8:35 AM63 °FMostly cloudy.8 mph83%29.76 "Hg10 mi
8:15 AM63 °FLow clouds.12 mph83%29.74 "Hg10 mi
7:55 AM63 °FLow clouds.5 mph83%29.73 "Hg10 mi
7:35 AM63 °FMostly cloudy.6 mph83%29.72 "Hg10 mi
7:15 AM63 °FMostly cloudy.7 mph83%29.72 "Hg10 mi
6:55 AM61 °FMostly cloudy.7 mph88%29.72 "Hg10 mi
6:35 AM61 °FPassing clouds.6 mph83%29.70 "Hg10 mi
6:15 AM61 °FClear.5 mph88%29.69 "Hg10 mi
5:55 AM61 °FPassing clouds.6 mph88%29.69 "Hg10 mi
5:35 AM63 °FClear.5 mph83%29.68 "Hg10 mi
1:35 AM64 °FOvercast.9 mph83%29.69 "Hg10 mi
12:55 AM64 °FMostly cloudy.7 mph83%29.72 "Hg10 mi
12:15 AM63 °FPassing clouds.7 mph88%29.71 "Hg10 mi
11:55 PM
Fri, Apr 29
64 °FPassing clouds.9 mph83%29.71 "Hg10 mi
11:35 PM64 °FPartly cloudy.14 mph88%29.71 "Hg9 mi
10:55 PM64 °FThundershowers. Mostly cloudy.No wind88%29.77 "Hg3 mi
10:15 PM64 °FPassing clouds.6 mph88%29.76 "Hg9 mi
9:35 PM64 °FPassing clouds.6 mph88%29.75 "Hg10 mi
9:15 PM64 °FPartly cloudy.7 mph88%29.74 "Hg10 mi
8:35 PM64 °FMostly cloudy.7 mph83%29.75 "Hg7 mi
7:55 PM63 °FThundershowers. Broken clouds.10 mph83%29.72 "Hg7 mi
7:35 PM63 °FThundershowers. Scattered clouds.12 mph83%29.70 "Hg10 mi
6:55 PM63 °FOvercast.13 mph83%29.72 "Hg8 mi
6:35 PM63 °FThunderstorms. Mostly cloudy.8 mph77%29.72 "Hg10 mi
6:15 PM63 °FThunderstorms. Broken clouds.5 mph77%29.72 "Hg10 mi
5:55 PM64 °FThunderstorms. Broken clouds.13 mph73%29.71 "Hg9 mi
5:35 PM64 °FThundershowers. Broken clouds.14 mph73%29.72 "Hg10 mi
5:15 PM66 °FPassing clouds.16 mph68%29.72 "Hg10 mi
Weather by CustomWeather, © 2016

See weather overviewHow to use our weather pages